Weather History for Bentonville, AR

Change the Weather History Date:

Wednesday, April 10, 2013

  Actual Average Record
Temperature  
Mean Temperature 55 °F -  
Max Temperature 73 °F 66 °F 84 °F (1992)
Min Temperature 37 °F 41 °F 27 °F (1952)
Degree Days  
Heating Degree Days 10    
Growing Degree Days 5 (Base 50)    
Moisture  
Dew Point 43 °F    
Average Humidity 84    
Maximum Humidity 93    
Minimum Humidity 65    
Precipitation  
Precipitation 0.73 in - - ()
Sea Level Pressure  
Sea Level Pressure 29.81 in    
Wind  
Wind Speed 11 mph (WNW)    
Max Wind Speed 17 mph    
Max Gust Speed 24 mph    
Visibility 8 miles    
Events Thunderstorm    
Averages and records for this station are not official NWS values.
T = Trace of Precipitation, MM = Missing Value Source: NWS Daily Summary

Daily Weather History Graph

Daily Weather History Graph

Search for Another Location

Airport:

Trip Planner

Search our weather history database for the weather conditions in past years. The results will help you decide how hot, cold, wet, or windy it might be!

Date:

Astronomy

Apr. 10, 2013 Rise Set
Actual Time 6:49 AM CDT 7:46 PM CDT
Civil Twilight 6:23 AM CDT 8:13 PM CDT
Nautical Twilight 5:52 AM CDT 8:44 PM CDT
Astronomical Twilight 5:20 AM CDT 9:16 PM CDT
Moon 6:47 AM CDT (4/10) 8:21 PM CDT (4/10)
Length of Visible Light 13h 49m
Length of Day
12h 57m
Waxing Crescent, 0% of the Moon is Illuminated
Apr 10
Waxing Crescent
Apr 18
First Quarter
Apr 25
Full
May 2
Last Quarter
May 9
New

Hourly Weather History & Observations

Time (CDT) Temp. Windchill Dew Point Humidity Pressure Visibility Wind Dir Wind Speed Gust Speed Precip Events Conditions
12:15 AM 73.4 °F - 60.8 °F 65% 29.75 in 10.0 mi South 16.1 mph 21.9 mph N/A   Clear
12:35 AM 73.4 °F - 60.8 °F 65% 29.76 in 10.0 mi South 11.5 mph 20.7 mph N/A   Mostly Cloudy
12:55 AM 73.4 °F - 60.8 °F 65% 29.76 in 10.0 mi South 16.1 mph 21.9 mph N/A   Overcast
1:15 AM 73.4 °F - 60.8 °F 65% 29.75 in 10.0 mi South 13.8 mph 19.6 mph N/A   Overcast
1:35 AM 73.4 °F - 62.6 °F 69% 29.74 in 10.0 mi South 16.1 mph 24.2 mph N/A   Overcast
1:55 AM 71.6 °F - 62.6 °F 73% 29.74 in 10.0 mi South 11.5 mph 20.7 mph N/A   Overcast
2:15 AM 71.6 °F - 62.6 °F 73% 29.75 in 10.0 mi SSW 12.7 mph 20.7 mph N/A   Overcast
2:35 AM 71.6 °F - 62.6 °F 73% 29.74 in 10.0 mi SSW 11.5 mph 20.7 mph N/A   Overcast
2:55 AM 59.0 °F - 51.8 °F 77% 29.75 in 10.0 mi West 8.1 mph 24.2 mph N/A   Overcast
3:15 AM 57.2 °F - 48.2 °F 72% 29.77 in 10.0 mi NW 10.4 mph - N/A   Overcast
3:35 AM 55.4 °F - 50.0 °F 82% 29.76 in 10.0 mi NNW 6.9 mph - N/A   Overcast
3:55 AM 55.4 °F - 51.8 °F 88% 29.76 in 10.0 mi Calm Calm - 0.01 in Thunderstorm Overcast
4:15 AM 55.4 °F - 51.8 °F 88% 29.79 in 10.0 mi NW 10.4 mph - N/A   Overcast
4:35 AM 53.6 °F - 48.2 °F 82% 29.80 in 10.0 mi WNW 12.7 mph 18.4 mph N/A Thunderstorm Overcast
4:55 AM 51.8 °F - 46.4 °F 82% 29.80 in 8.0 mi NW 11.5 mph 16.1 mph 0.04 in Thunderstorm Thunderstorm
5:15 AM 51.8 °F - 46.4 °F 82% 29.77 in 10.0 mi NE 3.5 mph - N/A   Overcast
5:35 AM 51.8 °F - 48.2 °F 88% 29.79 in 10.0 mi NNW 6.9 mph - N/A   Overcast
5:55 AM 51.8 °F - 46.4 °F 82% 29.79 in 9.0 mi NNW 5.8 mph - N/A   Overcast
6:15 AM 51.8 °F - 46.4 °F 82% 29.84 in 10.0 mi West 16.1 mph 19.6 mph N/A   Overcast
6:35 AM 50.0 °F - 44.6 °F 82% 29.83 in 7.0 mi West 8.1 mph - 0.04 in   Overcast
6:55 AM 48.2 °F - 44.6 °F 87% 29.85 in 10.0 mi NW 11.5 mph 16.1 mph 0.05 in   Overcast
7:15 AM 48.2 °F - 44.6 °F 87% 29.81 in 10.0 mi North 4.6 mph - 0.02 in   Overcast
7:35 AM 48.2 °F - 44.6 °F 87% 29.83 in 10.0 mi Calm Calm - 0.02 in   Overcast
7:55 AM 48.2 °F - 46.4 °F 93% 29.82 in 10.0 mi Calm Calm - 0.02 in   Overcast
8:15 AM 48.2 °F - 44.6 °F 87% 29.81 in 10.0 mi North 4.6 mph - N/A   Overcast
8:35 AM 50.0 °F - 46.4 °F 87% 29.82 in 10.0 mi WNW 4.6 mph - N/A   Overcast
8:55 AM 48.2 °F - 46.4 °F 93% 29.83 in 10.0 mi WNW 9.2 mph - 0.01 in   Overcast
9:15 AM 48.2 °F - 44.6 °F 87% 29.83 in 10.0 mi NW 4.6 mph - N/A   Overcast
9:35 AM 46.4 °F 42.9 °F 42.8 °F 87% 29.84 in 9.0 mi NNW 6.9 mph 21.9 mph 0.03 in   Overcast
9:55 AM 46.4 °F 41.9 °F 41.0 °F 81% 29.84 in 10.0 mi NNW 9.2 mph 18.4 mph 0.03 in Thunderstorm Thunderstorm
10:15 AM 46.4 °F 43.5 °F 42.8 °F 87% 29.84 in 10.0 mi NNW 5.8 mph - N/A   Overcast
10:35 AM 44.6 °F 40.2 °F 41.0 °F 87% 29.82 in 10.0 mi NE 8.1 mph - N/A   Overcast
10:55 AM 46.4 °F 40.4 °F 42.8 °F 87% 29.85 in 10.0 mi WNW 13.8 mph - N/A   Overcast
11:15 AM 44.6 °F 39.2 °F 42.8 °F 93% 29.85 in 10.0 mi WNW 10.4 mph - N/A   Overcast
11:35 AM 44.6 °F 40.2 °F 39.2 °F 81% 29.83 in 10.0 mi NW 8.1 mph - N/A   Overcast
12:15 PM 44.6 °F 39.2 °F 39.2 °F 81% 29.84 in 10.0 mi West 10.4 mph - N/A Thunderstorm Overcast
12:35 PM 42.8 °F - 39.2 °F 87% 29.83 in 10.0 mi Calm Calm - N/A   Overcast
1:15 PM 42.8 °F 38.0 °F 39.2 °F 87% 29.81 in 4.0 mi NW 8.1 mph - N/A   Overcast
1:35 PM 42.8 °F 37.5 °F 39.2 °F 87% 29.81 in 5.0 mi WNW 9.2 mph - N/A   Overcast
1:55 PM 42.8 °F 37.5 °F 37.4 °F 81% 29.82 in 4.0 mi WNW 9.2 mph - N/A   Overcast
2:15 PM 42.8 °F 35.8 °F 37.4 °F 81% 29.83 in 3.0 mi WNW 13.8 mph 18.4 mph N/A   Overcast
2:35 PM 41.0 °F 33.5 °F 37.4 °F 87% 29.82 in 2.5 mi WNW 13.8 mph 18.4 mph N/A   Overcast
2:55 PM 39.2 °F 33.0 °F 35.6 °F 87% 29.77 in 5.0 mi NNW 9.2 mph - N/A   Overcast
3:15 PM 39.2 °F 35.0 °F 35.6 °F 87% 29.77 in 10.0 mi North 5.8 mph - 0.01 in Thunderstorm Overcast
3:35 PM 39.2 °F 30.2 °F 35.6 °F 87% 29.86 in 6.0 mi West 17.3 mph - 0.11 in Thunderstorm Thunderstorm
3:55 PM 39.2 °F 31.6 °F 35.6 °F 87% 29.82 in 4.0 mi WNW 12.7 mph - 0.20 in Thunderstorm Thunderstorm
4:15 PM 39.2 °F 34.2 °F 35.6 °F 87% 29.75 in 5.0 mi NNE 6.9 mph - 0.09 in Thunderstorm Thunderstorm
4:35 PM 39.2 °F 32.0 °F 35.6 °F 87% 29.79 in 3.0 mi NW 11.5 mph - 0.25 in Thunderstorm Thunderstorm
4:55 PM 39.2 °F 33.6 °F 35.6 °F 87% 29.82 in 9.0 mi WNW 8.1 mph - 0.28 in Thunderstorm Overcast
5:15 PM 39.2 °F 35.0 °F 35.6 °F 87% 29.79 in 8.0 mi North 5.8 mph - 0.06 in   Overcast
5:35 PM 39.2 °F 37.0 °F 35.6 °F 87% 29.77 in 10.0 mi NNE 3.5 mph - 0.09 in   Overcast
5:55 PM 39.2 °F 32.0 °F 35.6 °F 87% 29.78 in 10.0 mi WNW 11.5 mph - 0.09 in   Overcast
6:15 PM 39.2 °F 33.0 °F 35.6 °F 87% 29.81 in 10.0 mi West 9.2 mph - N/A   Overcast
6:35 PM 39.2 °F 32.5 °F 35.6 °F 87% 29.80 in 10.0 mi WNW 10.4 mph - N/A   Overcast
6:55 PM 39.2 °F 31.6 °F 35.6 °F 87% 29.82 in 10.0 mi West 12.7 mph - N/A   Overcast
7:15 PM 39.2 °F 32.5 °F 35.6 °F 87% 29.82 in 5.0 mi WNW 10.4 mph - N/A   Overcast
7:35 PM 39.2 °F 30.5 °F 35.6 °F 87% 29.80 in 8.0 mi NW 16.1 mph - N/A   Overcast
7:55 PM 37.4 °F 28.5 °F 33.8 °F 87% 29.81 in 3.0 mi WNW 15.0 mph 21.9 mph N/A   Overcast
8:15 PM 37.4 °F 28.2 °F 33.8 °F 87% 29.82 in 9.0 mi WNW 16.1 mph 20.7 mph N/A   Overcast
8:35 PM 37.4 °F 30.3 °F 33.8 °F 87% 29.83 in 10.0 mi NW 10.4 mph - N/A   Overcast
8:55 PM 37.4 °F 28.9 °F 33.8 °F 87% 29.83 in 10.0 mi WNW 13.8 mph - N/A   Overcast
9:15 PM 37.4 °F 28.9 °F 33.8 °F 87% 29.82 in 10.0 mi WNW 13.8 mph 17.3 mph N/A   Overcast
9:55 PM 37.4 °F 29.3 °F 33.8 °F 87% 29.84 in 10.0 mi NW 12.7 mph 18.4 mph N/A   Overcast
10:15 PM 37.4 °F 29.8 °F 33.8 °F 87% 29.85 in 10.0 mi WNW 11.5 mph 17.3 mph N/A   Overcast
10:35 PM 37.4 °F 28.9 °F 33.8 °F 87% 29.86 in 10.0 mi NW 13.8 mph 17.3 mph N/A   Overcast
10:55 PM 37.4 °F 29.3 °F 33.8 °F 87% 29.86 in 10.0 mi WNW 12.7 mph 18.4 mph N/A   Overcast
11:15 PM 37.4 °F 29.3 °F 33.8 °F 87% 29.86 in 5.0 mi WNW 12.7 mph 20.7 mph N/A   Overcast
11:35 PM 37.4 °F 29.8 °F 33.8 °F 87% 29.85 in 3.0 mi WNW 11.5 mph - N/A   Overcast
11:55 PM 37.4 °F 29.3 °F 33.8 °F 87% 29.87 in 3.0 mi West 12.7 mph - N/A   Overcast